FTU12FS ZULS-VELR

Flight info

Callsign FTU12FS
Flight time N/A
Altitude 15000
Route DEP28R IGDAG W510 TAPUN/K0328S0510 W510 ELNUN DCT 295942N0943359E 300000N0945533E 295418N0950726E/K0330S0480 294554N0950344E 294552N0945938E 294426N0945612E 294304N0945545E 294130N0945323E 293829N0945212E/K0328S0510 293714N0945520E 293544N0945559E/K0330S0480 293156N0945248E 293014N0944922E 292811N0944913E 292813N0944451E 292801N0943902E 292820N0943543E 292636N0942952E 292524N0942815E 292118N0942455E 291839N0942048E/N0178F160
Aircraft SR20/L-SDGRY/S

Departure

Time 2026-05-01 08:00
Airport Lhasa Gonggar International Airport (ZULS)

Arrival

Time N/A
Airport Lilabari North Lakhimpur Airport (VELR)
Time Latitude Longitude Altitude Speed Heading
2026-05-01 07:48 29.29413 90.88891 11644 ft 0 kts 179°
2026-05-01 07:51 29.29410 90.88892 11644 ft 1 kts 152°
2026-05-01 07:51 29.29452 90.88891 11644 ft 0 kts 336°
2026-05-01 07:52 29.29532 90.88765 11644 ft 19 kts 309°
2026-05-01 07:52 29.29667 90.88689 11644 ft 25 kts 358°
2026-05-01 07:52 29.29862 90.88721 11644 ft 31 kts 44°
2026-05-01 07:53 29.29959 90.89276 11644 ft 41 kts 92°
2026-05-01 07:53 29.29967 90.89610 11644 ft 43 kts 85°
2026-05-01 07:53 29.29968 90.89963 11645 ft 45 kts 95°
2026-05-01 07:53 29.29980 90.90310 11645 ft 43 kts 88°
2026-05-01 07:54 29.29989 90.91015 11645 ft 45 kts 88°
2026-05-01 07:55 29.30006 90.92055 11646 ft 45 kts 88°
2026-05-01 07:55 29.30015 90.92722 11646 ft 34 kts 89°
2026-05-01 07:56 29.30075 90.92894 11647 ft 0 kts 347°
2026-05-01 07:56 29.30172 90.92838 11646 ft 11 kts 271°
2026-05-01 07:57 29.30168 90.92629 11646 ft 49 kts 268°
2026-05-01 07:57 29.30158 90.91325 11761 ft 94 kts 266°
2026-05-01 07:58 29.30168 90.89654 11820 ft 117 kts 268°
2026-05-01 07:58 29.30170 90.87809 11903 ft 127 kts 268°
2026-05-01 07:59 29.30056 90.85747 12020 ft 129 kts 259°
2026-05-01 07:59 29.29581 90.83827 12261 ft 122 kts 246°
2026-05-01 08:00 29.28728 90.80222 12742 ft 117 kts 272°
2026-05-01 08:01 29.29656 90.77488 12945 ft 133 kts 307°
2026-05-01 08:01 29.30305 90.76714 13049 ft 135 kts 319°
2026-05-01 08:01 29.31094 90.76102 13152 ft 137 kts 331°
2026-05-01 08:02 29.32936 90.75504 13355 ft 139 kts 357°
2026-05-01 08:02 29.33905 90.75556 13456 ft 140 kts
2026-05-01 08:03 29.35720 90.76364 13659 ft 140 kts 35°
2026-05-01 08:03 29.36465 90.77082 13760 ft 140 kts 48°
2026-05-01 08:03 29.37472 90.78970 13964 ft 139 kts 73°
2026-05-01 08:04 29.37700 90.81148 14172 ft 137 kts 97°
2026-05-01 08:04 29.37249 90.83263 14380 ft 137 kts 105°
2026-05-01 08:05 29.36998 90.85415 14587 ft 137 kts 93°
2026-05-01 08:05 29.37031 90.86511 14690 ft 137 kts 86°
2026-05-01 08:05 29.37156 90.87598 14793 ft 137 kts 81°
2026-05-01 08:06 29.37669 90.89750 14907 ft 145 kts 70°
2026-05-01 08:06 29.38601 90.91885 14908 ft 156 kts 59°
2026-05-01 08:07 29.40014 90.93890 14908 ft 165 kts 46°
2026-05-01 08:07 29.41845 90.95528 14910 ft 169 kts 32°
2026-05-01 08:08 29.42882 90.96159 14911 ft 171 kts 25°
2026-05-01 08:08 29.45184 90.96999 14914 ft 174 kts 11°
2026-05-01 08:09 29.47613 90.97163 14914 ft 175 kts 355°
2026-05-01 08:09 29.48836 90.97111 14921 ft 175 kts
2026-05-01 08:09 29.50042 90.97192 14984 ft 171 kts
2026-05-01 08:10 29.52344 90.97613 15124 ft 166 kts 13°
2026-05-01 08:10 29.54551 90.98299 15268 ft 162 kts 18°
2026-05-01 08:11 29.56646 90.99208 15413 ft 159 kts 25°
2026-05-01 08:11 29.58569 91.00436 15559 ft 157 kts 33°
2026-05-01 08:12 29.60317 91.01909 15703 ft 154 kts 41°
2026-05-01 08:12 29.61112 91.02740 15777 ft 153 kts 45°
2026-05-01 08:12 29.62508 91.04557 15923 ft 151 kts 54°
2026-05-01 08:13 29.63113 91.05539 15996 ft 150 kts 58°
2026-05-01 08:13 29.63590 91.06434 16060 ft 149 kts 62°
2026-05-01 08:13 29.64470 91.08534 16204 ft 147 kts 70°
2026-05-01 08:14 29.64814 91.09632 16277 ft 146 kts 73°
2026-05-01 08:14 29.65089 91.10749 16351 ft 145 kts 78°
2026-05-01 08:14 29.65296 91.11877 16425 ft 144 kts 82°
2026-05-01 08:14 29.65433 91.13000 16498 ft 143 kts 85°
2026-05-01 08:15 29.65505 91.14136 16571 ft 142 kts 89°
2026-05-01 08:15 29.65463 91.16395 16719 ft 140 kts 92°
2026-05-01 08:15 29.65460 91.17516 16793 ft 140 kts 92°
2026-05-01 08:16 29.65455 91.18636 16864 ft 140 kts 91°
2026-05-01 08:16 29.65461 91.19759 16846 ft 146 kts 90°
2026-05-01 08:16 29.65489 91.20953 16825 ft 151 kts 89°
2026-05-01 08:16 29.65547 91.22166 16873 ft 151 kts 88°
2026-05-01 08:17 29.65637 91.23373 16880 ft 154 kts 84°
2026-05-01 08:17 29.65992 91.24545 16885 ft 157 kts 67°
2026-05-01 08:17 29.66468 91.25709 16883 ft 160 kts 66°
2026-05-01 08:17 29.66724 91.26342 16883 ft 161 kts 70°
2026-05-01 08:18 29.66800 91.28758 16888 ft 162 kts 86°
2026-05-01 08:19 29.67221 91.31345 16890 ft 165 kts 77°
2026-05-01 08:19 29.67528 91.32606 16892 ft 166 kts 75°
2026-05-01 08:19 29.67869 91.33888 16894 ft 167 kts 74°
2026-05-01 08:19 29.68229 91.35159 16896 ft 168 kts 73°
2026-05-01 08:20 29.68602 91.36432 16898 ft 168 kts 72°
2026-05-01 08:20 29.68991 91.37727 16900 ft 169 kts 72°
2026-05-01 08:20 29.69377 91.38995 16903 ft 169 kts 73°
2026-05-01 08:20 29.69572 91.39633 16903 ft 169 kts 72°